STARLINK-2748 (48694 NORAD) Tracking and Keplerian Element Data

This shows tracking and keplerian element data for the satellite.

Feedback or suggestion? Click here.




ElementValue
Catalog48694
NameSTARLINK-2748
Epoch Orbit368
Epoch Day210.91668981
Epoch Year2021
RAAN105.8571
Inclination53.0462
Eccentricity0.0002106
Argument of Perigee22.1381
Mean Anonmoly79.1584
Mean Motion15.7324661
Decay Rate-0.00108619
L11 48694U 21044BJ 21210.91668981 -.00108619 00000-0 -77771-3 0 9995
L22 48694 53.0462 105.8571 0002106 22.1381 79.1584 15.73246610 3682

Live tracking and technical data element details for STARLINK-2748 (NORAD 48694). STARLINK-2748 can be tracked NOW for your location showing map with azimuth and elevation plus other details from your city location.

Track the satellite on the map from your city or location and see movement details for azimuth, elevation, latitude, longitude, range, height, and movement on the map or in text.







IsCatalogInMostPopularTable: catalog: 48694, numindb: 12
Update: records affected: 1



GetName: 48694 STARLINK-2748

Hit Count: updated at: Sat, 31 Jul 2021 15:01:19 GMT